Theta_e
320 320 326 324 329 334 342 348 345 344 346 344 343 342 343 344 346 347 341 341 330 340 346 337 329 329 332 333 334 335 336 337 336 335 334 333 332 332 331 331 332 337 338 336 330 323 319 319 320
321 321 323 317 334 333 335 342 345 342 343 343 342 343 344 345 344 340 337 335 336 331 345 340 330 329 332 334 334 335 336 336 335 334 333 332 331 331 331 333 338 338 332 325 321 320 319 320 320
325 322 317 319 326 328 336 340 340 339 343 342 344 341 340 342 342 340 341 334 337 333 344 342 334 329 333 335 335 335 337 336 335 334 332 332 331 330 331 338 338 331 324 321 320 320 320 322 325
324 317 312 319 323 323 334 339 340 344 342 340 340 344 337 341 343 343 339 331 331 340 344 344 339 329 332 335 336 335 336 337 335 334 331 331 330 329 334 337 331 324 321 320 320 321 322 324 327
319 310 314 316 317 330 341 339 339 342 343 342 342 345 340 342 342 344 335 327 327 339 345 344 341 333 330 333 335 335 335 336 335 332 330 330 329 329 335 334 327 322 320 320 321 322 324 325 327
317 310 314 315 317 330 340 339 338 341 343 343 343 344 340 341 343 342 327 325 328 334 342 342 341 336 331 332 335 335 335 335 333 331 330 329 328 330 334 334 325 321 321 323 323 324 325 327 328
317 314 316 317 316 321 339 337 338 339 342 345 341 346 342 340 339 335 326 326 330 334 337 338 339 337 334 334 335 335 333 333 331 330 329 328 329 330 334 333 327 325 326 326 327 326 326 328 331
313 313 315 315 315 319 338 341 337 341 341 341 343 347 344 343 335 330 328 329 331 335 335 336 336 336 335 335 335 334 333 331 329 329 328 329 330 332 333 333 331 330 332 333 331 327 327 333 332
310 314 315 318 315 326 339 339 337 338 340 341 339 343 339 343 335 333 335 335 333 335 335 334 334 334 333 332 333 332 331 329 329 329 329 331 332 332 333 334 334 333 333 334 335 331 330 329 328
314 313 315 315 316 328 338 338 338 341 341 342 341 340 344 344 341 341 340 339 335 333 332 331 331 331 332 332 330 329 329 328 328 329 331 331 332 333 333 333 334 335 336 333 331 331 329 328 326
313 316 315 317 317 321 335 338 337 340 342 341 341 340 343 346 345 344 342 340 338 333 332 331 330 330 329 329 328 328 328 328 329 331 330 330 331 332 334 335 334 333 333 331 330 329 328 325 323
317 315 316 317 316 324 335 337 340 338 338 336 338 339 342 346 346 346 345 345 344 341 333 331 330 330 329 328 328 327 328 328 330 330 329 327 329 334 334 333 332 332 331 330 328 325 322 320 318
315 316 315 314 314 321 332 338 338 338 336 332 339 338 345 345 345 346 346 346 346 346 338 333 331 330 330 330 329 329 329 329 329 326 325 333 334 334 333 332 331 329 326 324 322 321 319 316 314
314 315 315 316 315 313 329 335 337 336 335 334 338 338 338 343 344 344 345 346 346 347 342 335 333 330 330 330 331 332 332 331 331 328 328 334 335 333 331 329 326 324 323 322 319 317 314 312 310
316 319 316 318 315 331 333 338 338 335 332 334 337 338 336 336 335 337 341 345 346 347 344 338 335 331 331 332 331 332 331 331 332 331 332 334 333 330 326 327 326 324 321 319 316 312 311 311 311
317 315 318 318 318 327 323 324 323 333 333 333 337 338 337 338 337 335 336 338 342 345 344 341 338 333 333 332 332 338 333 331 333 333 333 331 328 328 329 327 325 321 318 314 312 311 311 312 312
312 318 319 318 316 330 326 319 315 320 332 334 336 338 337 337 338 338 337 334 332 334 341 342 340 337 336 336 337 340 334 337 335 332 330 328 329 330 327 325 321 317 314 312 311 310 311 312 312
318 319 318 318 318 317 317 321 316 315 332 333 334 335 336 336 338 339 338 336 334 331 334 338 339 339 339 339 339 338 336 336 332 329 328 329 330 328 325 320 317 315 314 313 311 310 310 312 312
318 319 319 318 317 319 317 316 315 319 330 332 333 335 335 338 338 338 339 339 338 335 335 337 338 339 339 338 336 335 333 329 328 328 328 328 326 322 318 316 316 314 314 313 311 310 310 310 311
319 320 318 317 318 317 317 317 324 333 332 332 333 332 337 340 339 337 341 342 342 340 339 339 339 338 337 337 335 334 330 328 328 329 329 324 321 317 316 316 315 315 314 313 311 309 311 311 311
318 319 319 319 318 317 317 318 324 340 341 337 340 338 338 340 338 336 337 338 342 341 341 339 338 338 337 336 335 333 330 329 329 328 324 320 317 316 316 316 315 314 313 313 311 310 310 310 310
319 317 318 319 320 319 317 319 317 333 342 343 344 340 338 338 334 335 336 336 338 339 341 341 340 338 337 336 335 335 332 330 328 325 320 316 315 316 316 315 313 312 312 312 310 309 309 310 309
317 319 319 320 318 318 319 318 317 336 344 340 340 338 336 335 333 335 335 334 334 339 340 340 340 339 338 338 336 334 333 328 320 316 315 314 313 313 312 310 308 307 307 307 307 308 308 308 309
319 320 317 315 315 318 318 318 317 340 341 340 341 337 336 333 330 333 333 333 333 335 337 338 338 336 335 335 334 332 327 320 317 314 312 310 309 308 307 306 306 306 307 307 308 308 307 306 308
318 316 319 320 319 320 317 318 318 319 324 330 336 336 338 335 332 332 332 331 330 331 331 333 333 327 327 327 324 322 321 318 315 311 309 309 307 306 307 307 307 307 307 308 307 307 307 306 304
316 316 319 322 320 320 318 321 322 332 338 337 335 336 337 335 332 332 330 328 328 328 328 327 328 324 323 323 321 318 315 313 311 309 309 307 306 306 306 305 306 306 306 306 305 304 302 301 300
319 318 316 318 318 320 318 319 330 340 344 339 338 338 337 336 334 332 328 326 327 326 324 326 323 320 319 318 315 313 311 310 309 309 308 307 306 305 305 305 306 306 306 306 304 302 303 302 301
319 317 320 315 322 322 318 321 325 331 340 342 339 337 336 334 334 330 327 326 326 324 325 322 319 317 314 313 312 311 311 310 309 309 308 308 307 305 306 306 306 306 306 306 305 303 303 302 302
315 317 317 315 318 320 321 319 318 328 330 341 338 336 334 333 332 329 326 325 325 324 322 319 317 315 314 313 312 311 311 310 309 310 309 309 307 306 306 306 306 306 306 306 306 305 303 302 302
314 315 316 318 320 319 319 320 317 319 327 337 338 336 332 330 329 327 324 324 323 323 321 319 316 316 315 313 312 312 311 309 310 311 310 309 308 307 307 307 307 307 306 306 306 306 305 303 302
Wind_Speed
4 1 3 3 4 5 2 1 3 3 1 3 2 4 4 2 3 4 4 16 19 25 25 24 23 22 20 19 18 17 17 16 15 14 13 12 11 11 10 9 8 8 8 7 7 7 8 8 9
6 1 3 2 4 4 3 2 4 3 4 3 4 4 4 2 3 2 8 7 22 26 25 25 22 21 19 18 17 16 15 14 13 11 10 10 9 9 8 7 7 6 6 6 6 6 7 8 8
3 3 3 4 3 2 3 5 6 3 6 2 3 4 4 2 1 11 3 12 24 27 25 24 22 20 19 18 17 15 14 13 11 10 8 8 7 7 6 6 5 5 5 5 5 6 7 8 9
3 6 4 4 1 3 4 1 2 2 2 4 3 4 4 4 9 5 14 21 27 24 24 24 22 21 20 18 17 16 14 13 11 9 8 7 7 6 5 5 4 4 3 4 5 5 7 8 9
5 3 4 3 3 4 3 3 2 1 1 2 1 2 6 3 6 13 17 23 24 24 24 23 22 21 21 20 18 16 15 12 10 9 8 7 7 6 5 4 3 2 2 3 4 5 7 9 11
4 3 4 1 5 3 3 3 2 3 7 5 6 5 5 9 16 20 23 24 23 25 25 24 23 22 21 19 18 16 14 12 11 10 9 8 7 5 4 3 2 1 2 4 6 7 9 11 12
6 4 3 2 4 6 3 3 3 5 3 3 2 5 3 8 19 25 25 24 23 24 24 24 23 22 20 19 18 17 15 13 11 10 8 7 6 5 4 3 2 2 3 5 7 8 10 12 11
5 4 3 3 3 5 3 1 3 4 5 4 2 5 5 7 25 23 23 24 24 24 24 25 24 23 22 21 19 17 15 13 12 10 9 8 6 5 5 5 3 4 6 6 8 10 11 9 9
4 4 2 4 5 4 3 5 3 3 6 2 3 1 3 29 26 23 18 17 18 20 22 22 22 22 22 21 19 17 15 13 11 10 9 8 7 7 7 6 5 6 7 8 8 9 8 9 11
4 4 9 5 5 5 4 6 6 2 4 3 3 2 21 29 27 23 21 22 25 26 27 26 25 25 23 21 20 19 17 15 14 12 10 9 8 7 8 8 8 8 7 6 6 8 9 11 14
4 6 6 4 8 6 5 4 5 4 5 9 3 8 17 20 19 23 27 31 35 32 29 29 27 26 25 24 22 20 18 18 16 14 12 11 9 8 8 7 5 3 4 4 6 10 12 14 16
3 7 4 5 6 5 6 5 6 8 9 5 0 8 13 15 16 21 22 26 28 27 31 29 29 28 28 26 25 23 22 20 17 15 13 11 10 8 5 4 1 2 4 7 10 12 13 15 17
4 4 4 7 6 8 6 11 7 13 12 5 6 12 13 14 20 20 19 23 27 30 30 31 30 30 28 27 25 23 22 20 18 17 14 11 10 8 6 4 2 4 7 8 10 13 15 17 18
6 4 7 5 6 5 6 0 5 10 7 6 1 6 12 14 21 16 17 24 28 34 32 31 31 30 29 28 24 21 20 18 15 14 13 10 9 7 4 1 3 5 8 10 12 13 14 15 15
3 4 7 2 4 2 8 0 10 20 4 10 10 7 9 11 16 23 28 31 35 38 35 33 31 30 30 27 25 22 19 16 13 13 12 11 9 5 2 2 6 7 8 10 10 11 13 14 14
4 4 3 3 1 2 3 8 10 16 10 9 11 12 12 9 16 25 27 30 30 33 35 32 30 29 28 26 25 19 16 16 15 13 11 9 7 3 2 5 6 7 7 8 10 13 13 13 14
6 1 1 7 4 5 0 9 10 5 11 10 14 15 13 7 9 18 20 20 25 33 36 33 30 27 25 23 22 17 15 14 14 13 12 9 5 2 4 5 5 6 7 8 12 14 15 15 16
2 2 3 4 3 2 4 17 11 10 14 13 14 14 13 8 7 10 11 14 17 22 24 27 29 25 23 22 19 16 13 14 15 13 10 5 3 5 5 4 5 5 6 10 12 15 15 14 13
3 3 4 5 4 3 7 7 11 10 3 10 12 15 13 5 6 8 9 8 9 11 18 22 24 21 22 21 19 16 18 17 14 11 5 1 4 3 5 5 5 5 8 10 12 13 13 13 15
4 3 6 8 2 6 4 7 7 3 4 5 11 7 7 6 6 8 10 11 11 17 20 21 20 19 19 21 19 17 20 14 11 5 3 2 3 4 4 5 6 5 7 9 10 10 9 8 15
3 3 4 6 7 4 5 6 6 2 3 1 5 5 7 10 10 6 10 10 11 17 21 23 22 21 19 18 17 17 14 11 7 5 4 3 4 4 4 4 4 5 7 7 9 10 10 9 15
4 5 7 5 2 2 2 4 5 6 8 4 3 5 8 9 9 8 11 11 11 16 20 20 19 18 15 13 12 14 15 11 8 8 5 0 1 2 2 2 4 7 7 9 11 12 13 13 15
8 5 4 3 4 2 3 4 7 5 6 9 7 7 7 8 12 13 12 12 12 17 19 19 17 15 13 11 12 14 13 11 13 9 6 4 4 4 4 4 6 8 9 10 11 13 14 15 15
2 3 6 5 3 1 5 5 6 4 7 7 3 7 6 6 10 11 14 16 16 17 18 17 16 15 13 13 13 13 14 14 10 7 4 4 4 5 6 7 9 10 11 13 14 15 15 15 16
3 6 3 3 3 5 0 2 8 5 7 8 10 9 10 10 9 11 11 13 16 15 15 15 15 15 14 13 13 12 11 9 7 5 4 6 6 7 8 10 12 14 15 13 12 12 11 12 14
6 8 5 5 4 4 2 5 6 4 9 14 3 11 12 13 10 12 13 14 18 17 15 14 14 14 12 10 10 10 10 7 5 5 5 4 6 7 10 13 13 12 9 9 9 12 12 13 14
2 4 4 5 2 2 4 7 7 4 6 2 7 12 13 14 12 14 15 17 20 20 18 15 13 14 13 12 11 10 9 6 5 5 4 7 7 11 12 10 10 8 6 7 11 10 11 12 13
4 5 1 3 2 4 4 5 5 7 8 6 6 9 11 11 15 13 13 17 18 16 17 15 15 15 14 12 10 9 8 5 4 3 4 6 9 8 6 7 9 9 9 9 11 11 12 13 14
1 1 4 4 5 5 3 6 8 10 8 13 11 9 10 11 10 10 12 17 18 16 18 18 17 17 15 12 10 8 5 3 1 3 4 5 6 6 6 8 10 11 12 13 15 17 18 17 17
7 9 6 4 5 3 4 6 5 9 7 9 11 10 7 7 8 9 12 18 19 20 21 21 18 17 14 11 8 4 1 1 2 4 4 6 6 7 9 11 13 15 16 17 20 22 24 22 22
Wind_Direction
23 3 157 116 46 64 41 75 229 326 189 161 232 154 191 129 163 220 342 165 166 160 164 163 160 158 157 152 146 140 137 134 131 129 128 127 125 120 115 111 106 101 95 89 85 80 76 69 60
353 316 122 86 78 37 295 241 219 239 226 222 139 114 62 358 58 85 132 161 170 166 167 165 163 161 159 155 150 147 143 141 139 139 136 135 129 124 118 111 105 102 98 97 91 82 70 56 43
18 352 79 87 110 190 211 223 221 294 297 185 126 83 112 313 28 157 215 156 159 164 168 167 165 164 163 159 158 156 153 153 152 149 147 142 134 128 119 115 113 107 99 89 75 60 48 36 24
354 14 37 74 303 264 229 184 274 252 240 11 341 62 86 252 150 198 158 163 162 162 167 170 168 169 171 170 168 167 167 168 164 161 159 154 148 143 140 137 127 110 86 65 50 35 20 12 3
39 56 52 50 275 273 265 104 265 354 270 295 244 180 115 148 166 161 160 165 169 163 167 173 174 177 179 179 178 177 177 175 175 175 174 171 167 163 161 148 124 98 71 40 17 1 356 349 345
38 95 43 3 291 278 296 193 199 217 222 183 119 153 161 150 159 163 164 169 173 166 170 178 180 182 184 184 184 183 182 185 188 189 186 183 182 180 175 172 154 94 13 354 352 347 341 335 332
117 84 205 193 263 310 243 186 245 250 308 320 171 139 118 157 169 166 168 171 173 173 175 181 182 185 188 189 189 189 191 194 196 198 197 195 199 197 198 207 237 285 323 334 333 323 321 323 329
111 93 136 241 224 270 234 246 285 209 255 115 273 185 180 193 167 163 168 175 177 182 181 183 184 187 191 192 195 196 196 200 202 203 202 205 209 214 220 236 257 300 311 315 313 317 321 329 330
137 70 200 228 165 243 201 198 212 271 276 172 192 348 158 158 158 153 161 174 182 193 193 191 190 192 195 198 198 199 202 204 208 209 211 214 214 218 233 250 269 276 294 302 307 316 325 327 330
106 134 213 211 192 219 210 195 190 225 287 247 164 113 128 147 152 152 172 183 192 199 199 198 197 197 198 201 202 203 203 204 207 207 208 216 219 227 244 256 267 277 291 309 324 321 320 322 324
174 192 188 229 218 186 196 219 181 186 268 233 191 149 155 159 167 173 185 191 195 203 204 203 203 203 202 204 204 206 205 206 205 206 203 199 220 237 244 250 261 275 279 297 314 313 319 323 322
179 255 166 260 223 151 187 159 203 198 220 37 94 145 162 175 182 193 196 194 197 206 212 209 207 208 207 207 207 207 205 203 204 205 204 207 213 216 214 219 208 301 322 318 318 320 323 323 326
198 256 191 226 217 231 142 199 185 233 228 339 357 140 169 194 195 203 211 203 204 206 214 215 212 212 215 215 215 214 211 210 205 200 203 208 204 203 196 208 270 318 321 322 328 329 330 331 335
206 247 271 255 211 233 182 38 138 262 197 216 264 186 176 202 198 192 207 210 210 212 214 218 216 217 218 218 220 224 223 217 213 204 202 201 201 194 200 248 330 334 330 335 338 337 337 339 340
275 301 324 258 167 146 125 247 222 234 140 208 183 202 203 208 198 196 204 211 215 218 213 216 220 218 220 222 223 224 224 221 217 210 199 194 189 186 170 343 322 332 338 343 345 343 345 343 342
12 48 29 273 347 349 37 269 264 243 186 189 188 206 215 204 205 211 211 217 222 224 223 217 219 221 220 222 224 229 223 217 211 204 189 179 168 153 324 316 329 343 351 354 356 353 350 350 344
2 189 271 319 324 121 38 271 253 276 199 179 188 210 217 197 214 222 222 223 223 227 230 222 213 217 214 217 224 225 219 207 197 183 175 170 165 293 309 323 345 355 2 6 4 360 355 350 344
192 20 310 266 238 81 213 250 286 258 204 191 187 206 219 203 199 200 219 231 231 231 225 223 206 206 208 211 217 207 197 180 175 171 164 174 277 298 305 336 358 8 7 2 1 1 352 349 341
152 191 241 253 222 307 271 286 303 324 161 161 186 209 213 166 124 128 136 152 170 184 196 191 194 193 201 197 184 170 162 161 161 159 160 294 302 306 335 350 353 360 360 358 360 356 348 346 351
202 250 276 290 244 186 322 303 282 357 310 215 191 173 159 126 93 79 100 111 131 144 153 160 175 173 176 176 167 167 164 167 170 171 238 252 281 308 333 341 334 342 346 348 352 348 340 328 350
258 206 241 233 325 300 327 311 340 344 340 146 86 113 158 170 146 127 113 106 120 143 144 155 158 158 164 169 164 156 161 162 171 196 205 237 276 306 322 319 321 329 330 327 337 344 342 330 344
288 209 233 257 35 247 16 272 308 327 308 257 172 157 160 146 121 129 139 126 128 127 137 145 151 154 158 159 169 184 180 166 188 181 176 140 272 300 347 327 333 334 323 322 327 334 336 333 335
230 220 219 226 197 75 293 88 269 5 312 280 192 167 181 155 144 146 153 137 134 131 136 140 145 145 149 160 168 170 168 161 148 136 130 86 68 63 40 353 340 335 337 335 338 337 336 333 323
229 334 31 47 82 43 247 141 282 208 217 280 172 155 155 134 132 133 142 141 135 133 134 134 137 134 146 156 160 158 145 140 133 132 129 99 52 22 2 348 353 344 343 345 344 338 331 326 318
118 66 322 343 8 215 106 62 236 257 239 242 269 156 150 154 142 146 146 145 139 133 127 129 137 127 129 134 135 131 124 125 119 109 70 35 21 17 15 9 6 4 359 355 357 358 355 341 328
188 156 157 227 201 248 94 237 247 233 284 268 67 141 145 155 152 159 167 158 153 148 145 148 131 127 130 132 132 130 122 106 99 77 56 38 33 20 13 8 358 355 354 352 357 347 343 341 341
178 163 183 123 20 83 247 295 315 317 319 0 136 144 156 164 164 169 169 164 163 163 153 139 141 146 143 142 141 133 113 102 96 82 45 24 16 13 9 0 355 347 332 335 343 354 350 349 350
164 164 67 17 201 245 287 290 237 264 250 240 212 190 170 162 165 165 154 160 167 158 135 150 165 157 152 150 144 126 106 101 97 42 19 6 7 3 353 342 334 328 317 315 321 322 323 322 330
18 249 60 126 147 185 224 258 221 231 224 208 210 203 186 169 160 152 159 160 157 152 158 168 169 166 157 157 148 128 116 128 55 1 338 338 352 333 322 323 324 317 309 307 304 304 302 300 306
171 198 155 138 258 209 173 267 272 253 265 179 196 198 182 164 153 151 145 149 158 165 177 178 177 175 166 156 157 138 102 309 281 299 293 298 304 304 299 302 306 307 307 300 298 298 295 294 295